[[{"header":{"parameterUnit":"m.s-1","parameterCategory":1,"la1":30.2991,"la2":30.254,"lo1":-89.0895,"lo2":-89.0444,"dy":0.0017,"dx":0.0017,"nx":28,"ny":28,"refTime":"2024-04-14T09:00:00:Z","depth":0,"parameterNumber":2,"parameterNumberName":"U-component_of_WINDS"},"data":[0,0,0,0,0,0,0,0,0,0,0,0,0,0,0,0,0,0,0,0,0,0,0,0,0,0,0,0,0,0,0,0,0,0,0,0,0,0,0,0,0,0,0,0,0,0,0,0,0,0,0,0,0,0,0,0,0,0,1.5986,1.5987,0,1.6074,1.6075,1.6075,1.6045,1.6043,1.6041,1.6039,1.6129,1.6133,1.6137,0,0,0,0,0,0,0,0,0,0,0,0,0,1.5792,1.5796,1.5986,1.5987,1.5988,1.6073,1.6075,1.6076,1.6045,1.6043,1.604,1.6038,1.6128,1.6133,1.6138,0,0,0,0,0,0,0,0,0,0,0,0,0,1.5878,1.5797,1.5986,1.5983,1.5984,1.6073,1.6075,1.6076,1.6046,1.6043,1.604,1.6037,1.6126,1.6132,1.6138,1.6236,0,0,1.6158,1.616,0,0,0,0,0,0,0,0,1.5873,1.5885,1.5982,1.5984,1.5984,1.6045,1.6039,1.613,1.6046,1.6022,1.6039,1.6036,1.6104,1.6112,1.6134,1.624,1.6244,1.6158,1.6162,1.6165,1.6167,0,0,0,0,0,0,0,1.5867,1.5881,1.6021,1.5984,1.5985,1.5978,1.5987,1.6056,1.6078,1.6024,1.6022,1.6033,1.6103,1.6128,1.6136,1.6245,1.6158,1.6164,1.6168,1.617,1.6433,1.6436,0,0,0,0,0,0,1.5861,1.5876,1.6018,1.6023,1.592,1.5983,1.5993,1.6029,1.6077,1.6082,1.6035,1.6031,1.6119,1.6129,1.6139,1.6255,1.6165,1.6171,1.6174,1.643,1.6434,1.6437,0,0,0,0,0,0,1.5857,1.5874,1.6014,1.5949,1.5967,1.599,1.603,1.6032,1.6057,1.6086,1.6089,1.6056,1.6117,1.613,1.6211,1.6258,1.6173,1.6179,1.6426,1.6431,1.6436,1.6488,0,0,0,0,0,0,1.5851,1.5872,1.591,1.595,1.597,1.6085,1.6033,1.6036,1.6068,1.6063,1.6107,1.6111,1.6116,1.6202,1.6218,1.6265,1.6184,1.6422,1.6428,1.6434,1.6482,1.6494,1.6504,0,0,0,0,0,1.5844,1.5921,1.5912,1.5929,1.6017,1.6088,1.6099,1.6103,1.6071,1.6109,1.6127,1.611,1.6251,1.6211,1.6228,1.6278,1.6419,1.6427,1.6434,1.6477,1.6491,1.6503,0,0,0,0,0,0,1.5885,1.5926,1.5916,1.6008,1.6045,1.6083,1.613,1.6118,1.6165,1.6158,1.6161,1.6171,1.6254,1.6274,1.623,1.6374,1.633,1.6341,1.6357,1.6371,1.6382,1.6374,1.6189,0,0,0,0,0,1.5905,1.5959,1.5992,1.607,1.6089,1.6107,1.6138,1.6137,1.6175,1.619,1.6215,1.6252,1.6305,1.6339,1.6389,1.6485,1.6494,1.6528,1.6539,1.6548,1.6556,1.6607,1.6622,1.6461,1.6461,1.6461,0,0,1.5946,1.5976,1.6009,1.6079,1.6107,1.6163,1.612,1.6181,1.6221,1.62,1.6277,1.6297,1.6339,1.6427,1.6467,1.6446,1.6603,1.6557,1.6564,1.6568,1.6616,1.6631,1.6645,1.6466,1.6465,1.6464,0,0,1.6049,1.6078,1.6145,1.6174,1.6217,1.6228,1.6244,1.6284,1.6296,1.6374,1.6358,1.6407,1.6498,1.6528,1.6556,1.667,1.6655,1.6687,1.6743,1.6792,1.6805,1.6816,1.6855,1.687,1.6696,1.6696,1.6696,0,1.6095,1.6178,1.6181,1.6243,1.6274,1.6257,1.6324,1.6353,1.641,1.6431,1.6407,1.652,1.6547,1.6642,1.667,1.6693,1.6711,1.6681,1.6803,1.6814,1.6825,1.6862,1.6877,1.6699,1.6699,1.6699,1.6698,0,1.6231,1.6289,1.6338,1.6393,1.643,1.6495,1.6507,1.6544,1.6541,1.6554,1.6634,1.6666,1.6721,1.6744,1.6742,1.6839,1.6824,1.6802,1.6757,1.6843,1.6878,1.6893,1.6704,1.6703,1.6702,1.6701,0,0,1.6361,1.6417,1.6435,1.6459,1.6506,1.6551,1.6615,1.6669,1.6699,1.674,1.6793,1.687,1.6849,1.688,1.6881,1.6925,1.7012,1.6897,1.6898,1.6916,1.7118,1.7133,1.715,1.7003,1.7006,1.7008,1.7114,0,1.6466,1.6578,1.6582,1.6684,1.6737,1.6721,1.6777,1.6811,1.6826,1.6873,1.6889,1.6943,1.6912,1.6931,1.6974,1.6992,1.7052,1.6985,1.7051,1.7053,1.7039,1.7168,1.7185,1.7283,1.7128,1.713,1.7132,0,1.6604,1.6648,1.6754,1.6792,1.6815,1.6864,1.6914,1.6959,1.6998,1.7005,1.704,1.7035,1.71,1.7055,1.7144,1.7098,1.7125,1.7139,1.7143,1.7147,1.7096,1.7175,1.7315,1.7329,1.7154,1.7152,1.7151,0,1.6685,1.6772,1.6846,1.6868,1.6915,1.695,1.6971,1.7007,1.7039,1.7082,1.7103,1.7154,1.7181,1.7221,1.7229,1.7196,1.7318,1.7274,1.7325,1.7324,1.7349,1.7347,1.7494,1.7371,1.737,1.737,1.737,0,1.6801,1.6867,1.6883,1.6929,1.7002,1.7007,1.7078,1.7097,1.7129,1.7178,1.7169,1.7215,1.7224,1.7272,1.7279,1.7351,1.7364,1.7371,1.7372,1.7371,1.7369,1.7387,1.738,1.7374,1.7373,1.7372,1.7372,0,1.6904,1.6918,1.6998,1.7036,1.7047,1.7098,1.713,1.7174,1.7188,1.725,1.7264,1.7286,1.7342,1.7355,1.7421,1.7426,1.751,1.7506,1.7497,1.7496,1.7545,1.754,1.7707,1.7729,1.7593,1.7594,1.7595,0,1.6976,1.7026,1.7069,1.71,1.7123,1.7175,1.7207,1.7215,1.7249,1.7296,1.7334,1.7389,1.7433,1.7523,1.7544,1.7595,1.759,1.7645,1.7597,1.7594,1.7588,1.7585,1.7589,1.7653,1.7655,1.7656,1.7657,0,1.7101,1.7106,1.7153,1.7203,1.7241,1.7281,1.7319,1.7345,1.7358,1.7397,1.7453,1.7487,1.7555,1.7609,1.766,1.7682,1.7671,1.7672,1.7686,1.7685,1.7677,1.768,1.752,1.7668,1.7667,1.7666,1.7665,1.7665,1.719,1.7233,1.7269,1.7322,1.7351,1.7386,1.7429,1.7448,1.7495,1.755,1.7552,1.7614,1.7651,1.7718,1.7743,1.7791,1.7774,1.7795,1.78,1.7804,1.7808,1.7671,1.78,1.78,1.78,1.78,1.7799,0,1.7313,1.7336,1.7384,1.7437,1.7478,1.7466,1.7506,1.7542,1.7596,1.7631,1.7675,1.774,1.7792,1.7818,1.787,1.7903,1.7899,1.7916,1.7913,1.7918,1.7821,1.7803,1.7918,1.7918,1.7918,1.7918,1.7918,1.7918,1.7382,1.7454,1.7462,1.7548,1.7571,1.7631,1.7655,1.7687,1.7715,1.7788,1.7832,1.7848,1.788,1.7934,1.7981,1.7987,1.8006,1.8025,1.8028,1.7937,1.7925,1.7913,1.7896,1.8029,1.8029,1.8121,1.8122,1.8122]},{"header":{"parameterUnit":"m.s-1","parameterCategory":1,"la1":30.2991,"la2":30.254,"lo1":-89.0895,"lo2":-89.0444,"dy":0.0017,"dx":0.0017,"nx":28,"ny":28,"refTime":"2024-04-14T09:00:00:Z","depth":0,"parameterNumber":3,"parameterNumberName":"V-component_of_WINDS"},"data":[0,0,0,0,0,0,0,0,0,0,0,0,0,0,0,0,0,0,0,0,0,0,0,0,0,0,0,0,0,0,0,0,0,0,0,0,0,0,0,0,0,0,0,0,0,0,0,0,0,0,0,0,0,0,0,0,0,0,2.1569,2.157,0,2.1698,2.1699,2.1701,2.1676,2.1673,2.1671,2.1669,2.1799,2.1804,2.181,0,0,0,0,0,0,0,0,0,0,0,0,0,2.1298,2.1303,2.1569,2.157,2.1572,2.1698,2.1699,2.1701,2.1676,2.1673,2.167,2.1668,2.1797,2.1803,2.181,0,0,0,0,0,0,0,0,0,0,0,0,0,2.142,2.1304,2.1568,2.1575,2.1577,2.1697,2.1699,2.1702,2.1677,2.1673,2.167,2.1666,2.1795,2.1803,2.1811,2.1933,0,0,2.1837,2.184,0,0,0,0,0,0,0,0,2.1413,2.143,2.1572,2.1575,2.1577,2.1667,2.1651,2.1779,2.1678,2.1639,2.1669,2.1665,2.1758,2.1769,2.1801,2.1939,2.1944,2.1838,2.1843,2.1846,2.1849,0,0,0,0,0,0,0,2.1405,2.1424,2.162,2.1574,2.1577,2.157,2.1584,2.1675,2.1716,2.1642,2.164,2.1656,2.1758,2.1793,2.1803,2.1946,2.1837,2.1845,2.185,2.1853,2.219,2.2193,0,0,0,0,0,0,2.1394,2.1417,2.1616,2.1624,2.1485,2.1578,2.1593,2.1642,2.1715,2.1723,2.1659,2.1654,2.178,2.1794,2.1808,2.1955,2.1846,2.1854,2.1859,2.2186,2.219,2.2195,0,0,0,0,0,0,2.1389,2.1412,2.161,2.152,2.1545,2.1586,2.1641,2.1646,2.168,2.1728,2.1735,2.1687,2.1778,2.1796,2.1902,2.1959,2.1858,2.1866,2.2181,2.2187,2.2193,2.225,0,0,0,0,0,0,2.1381,2.141,2.1458,2.1521,2.155,2.1704,2.1645,2.1651,2.1695,2.1691,2.1756,2.1763,2.1776,2.1889,2.191,2.1969,2.1872,2.2176,2.2184,2.2191,2.2243,2.2257,2.2269,0,0,0,0,0,2.1371,2.1469,2.1461,2.1485,2.161,2.1707,2.1723,2.1737,2.17,2.1748,2.1778,2.1761,2.1949,2.19,2.1924,2.1986,2.2173,2.2182,2.219,2.2238,2.2254,2.2269,0,0,0,0,0,0,2.1411,2.1477,2.1469,2.159,2.1643,2.1703,2.1763,2.1754,2.1818,2.1811,2.1824,2.1839,2.1947,2.1977,2.1921,2.2107,2.2056,2.2069,2.2084,2.21,2.2113,2.2104,2.1879,0,0,0,0,0,2.1434,2.1507,2.1561,2.1663,2.169,2.1722,2.1765,2.177,2.1825,2.1848,2.1886,2.1939,2.201,2.2056,2.2124,2.2247,2.226,2.2301,2.2314,2.2324,2.2336,2.2402,2.242,2.2223,2.2223,2.2223,0,0,2.1482,2.1527,2.1573,2.1672,2.1714,2.1789,2.1741,2.1823,2.1878,2.186,2.1962,2.1992,2.2052,2.2167,2.2219,2.2195,2.2393,2.2335,2.2343,2.2349,2.2413,2.2431,2.2448,2.2229,2.2228,2.2227,0,0,2.1607,2.1649,2.1738,2.1781,2.1845,2.1866,2.1887,2.1948,2.1967,2.207,2.2057,2.2122,2.2245,2.2288,2.2326,2.2466,2.2453,2.2488,2.2555,2.262,2.2635,2.2649,2.2699,2.2717,2.2499,2.25,2.25,0,2.1659,2.1773,2.1785,2.1868,2.1912,2.1898,2.1988,2.2028,2.2111,2.2141,2.2112,2.2265,2.2304,2.2428,2.2463,2.2494,2.2518,2.2481,2.2632,2.2646,2.2659,2.2707,2.2726,2.2503,2.2503,2.2503,2.2502,0,2.1833,2.1911,2.1975,2.2056,2.2106,2.2192,2.2217,2.2266,2.2267,2.229,2.2394,2.2441,2.2518,2.2547,2.2549,2.2671,2.2654,2.2629,2.2578,2.2682,2.2727,2.2745,2.2509,2.2507,2.2506,2.2505,0,0,2.1989,2.2074,2.2097,2.2133,2.2202,2.2263,2.2347,2.2423,2.2465,2.2521,2.2592,2.2695,2.2671,2.2714,2.272,2.2777,2.2884,2.2744,2.2746,2.2769,2.3021,2.3041,2.3062,2.2875,2.2879,2.2882,2.3016,0,2.2121,2.2271,2.2284,2.2419,2.2491,2.2479,2.2552,2.2601,2.2624,2.2688,2.2713,2.2786,2.275,2.2776,2.2831,2.286,2.2935,2.285,2.294,2.2944,2.2927,2.3085,2.3106,2.3231,2.3034,2.3037,2.3039,0,2.2296,2.2359,2.2501,2.2558,2.2589,2.2655,2.2725,2.2786,2.2841,2.2854,2.2901,2.2899,2.2984,2.293,2.3047,2.2988,2.3026,2.3045,2.305,2.306,2.2998,2.3099,2.3271,2.329,2.3067,2.3065,2.3063,0,2.2396,2.2515,2.2615,2.2647,2.2716,2.2763,2.2794,2.2845,2.2889,2.295,2.2978,2.3047,2.3085,2.3138,2.3154,2.3113,2.3271,2.3217,2.3283,2.3283,2.3318,2.3316,2.3499,2.3341,2.3341,2.334,2.334,0,2.2543,2.263,2.2661,2.2723,2.282,2.2833,2.2928,2.2956,2.3002,2.3068,2.306,2.3122,2.3139,2.3204,2.3216,2.3311,2.3328,2.334,2.3342,2.3341,2.334,2.3367,2.3359,2.3345,2.3344,2.3343,2.3342,0,2.2671,2.2696,2.2804,2.2861,2.2877,2.2946,2.2994,2.3053,2.3074,2.3157,2.3178,2.3211,2.3286,2.3307,2.3397,2.3406,2.3517,2.3511,2.3499,2.3499,2.3564,2.3558,2.3772,2.38,2.3623,2.3625,2.3626,0,2.2764,2.2831,2.2895,2.2939,2.2972,2.3043,2.3088,2.3103,2.315,2.3216,2.3267,2.3341,2.3402,2.3522,2.3554,2.3622,2.3618,2.3688,2.3629,2.3625,2.362,2.3616,2.3622,2.37,2.3702,2.3703,2.3705,0,2.2926,2.2935,2.3,2.307,2.3124,2.318,2.3233,2.3269,2.3291,2.3344,2.3421,2.3468,2.356,2.3633,2.3702,2.3733,2.3722,2.3723,2.3742,2.3742,2.3732,2.3738,2.3531,2.3718,2.3717,2.3716,2.3715,2.3715,2.304,2.3099,2.3153,2.3226,2.3267,2.3317,2.3375,2.3403,2.3468,2.3545,2.3548,2.3632,2.3684,2.3775,2.3809,2.3874,2.3853,2.388,2.3887,2.3894,2.39,2.3721,2.3886,2.3886,2.3886,2.3885,2.3885,0,2.3202,2.3236,2.3303,2.3377,2.3435,2.342,2.3477,2.3526,2.36,2.3649,2.3709,2.3797,2.3868,2.3904,2.3975,2.4019,2.4016,2.4037,2.4034,2.4041,2.3914,2.3891,2.4039,2.4039,2.4038,2.4038,2.4038,2.4038,2.3293,2.3391,2.3406,2.3524,2.3556,2.3639,2.3673,2.3718,2.3758,2.3857,2.3916,2.3939,2.3983,2.4056,2.412,2.4129,2.4155,2.4179,2.4185,2.4066,2.405,2.4036,2.4014,2.4184,2.4185,2.4307,2.4308,2.4309]}]]